GFSMA_850_thetae_087.txt.gz
Theta_e
307 307 307 307 307 307 307 307 307 307 307 307 307 307 307 306 305 304 303 303 303 304 305 306 306 307 308 308 307 314 325 321 330 329 323 326 333 335 334 332 325 322 316
307 307 307 307 307 307 307 307 307 307 307 307 307 307 307 306 306 304 303 303 303 303 303 305 305 306 310 310 307 307 308 324 324 323 331 328 324 327 330 332 333 330 322
307 307 307 307 307 307 307 307 307 307 307 307 307 307 306 306 305 304 303 303 303 303 303 303 305 306 310 315 312 308 307 306 316 324 323 326 330 325 327 330 330 331 331
307 307 307 307 307 307 307 307 306 306 307 307 307 307 307 306 305 304 304 302 302 304 304 304 304 305 305 306 307 308 309 310 308 309 322 324 322 330 328 325 329 331 332
307 307 307 307 307 306 306 306 306 307 308 308 307 307 307 306 305 305 304 302 302 303 304 305 305 306 306 306 306 306 306 308 310 310 308 315 324 323 327 331 323 326 331
307 307 307 306 306 306 307 306 307 308 308 308 307 307 306 306 305 304 302 302 301 302 302 301 302 304 305 306 306 306 305 304 304 311 315 313 310 322 323 325 330 324 325
307 306 306 306 307 308 309 309 308 308 308 308 307 307 307 306 305 302 302 303 302 302 301 301 300 300 302 303 304 305 305 305 305 304 312 314 313 310 317 323 324 328 327
306 306 307 308 308 308 309 309 308 308 307 307 306 306 305 305 302 302 304 303 302 301 300 300 300 299 299 299 300 301 302 303 304 304 303 308 312 313 311 313 321 324 327
307 308 308 308 308 308 308 308 308 307 306 306 305 304 304 304 303 303 302 302 301 301 300 300 299 299 299 299 299 299 299 299 300 302 303 303 305 308 312 312 312 317 323
308 308 308 308 308 308 308 307 307 307 306 305 304 303 303 302 301 301 300 300 300 300 299 299 298 298 298 298 298 298 298 298 298 298 299 301 302 304 306 311 313 313 315
309 309 309 308 308 308 308 308 307 306 305 303 303 302 301 300 300 299 299 299 297 298 298 298 298 298 297 297 297 297 297 297 297 298 298 298 300 302 303 309 311 313 313
309 309 308 308 308 308 308 307 306 304 303 302 301 301 300 299 299 298 298 297 297 296 296 297 297 297 296 296 296 296 296 296 297 297 297 297 298 300 303 308 311 312 313
308 308 308 308 308 307 305 304 303 302 301 301 300 300 299 299 298 296 296 296 296 296 296 295 296 296 296 295 295 295 295 296 296 297 298 300 298 298 299 303 308 310 311
308 307 305 304 303 303 302 302 301 301 300 300 299 297 296 296 295 295 294 295 295 295 295 295 295 294 295 295 295 295 295 295 296 297 299 302 302 301 298 298 301 307 310
302 302 301 301 301 301 301 300 299 298 296 296 296 295 295 295 294 294 293 293 294 294 295 295 295 295 295 294 294 294 295 297 295 296 296 298 300 300 301 302 303 303 304
301 301 300 300 300 299 298 297 296 296 296 296 295 295 294 293 292 292 292 293 293 294 294 294 295 295 295 295 295 294 296 296 295 296 297 298 299 300 301 301 302 304 304
299 299 299 299 298 297 296 296 296 296 295 294 293 292 292 292 292 292 293 293 294 294 295 294 295 294 294 295 295 296 295 296 296 296 297 298 298 299 300 301 301 302 303
299 299 298 297 296 296 296 296 295 295 294 293 292 292 292 292 292 294 294 294 294 294 294 294 294 295 295 295 295 295 295 295 296 296 296 296 296 297 297 299 300 301 301
298 296 296 296 296 295 295 295 295 294 292 292 291 291 292 292 294 294 294 294 294 294 295 295 295 295 296 295 295 295 295 296 297 297 297 298 298 298 299 299 300 300 299
296 296 296 296 296 296 295 295 294 293 292 291 291 291 292 293 294 294 294 295 296 296 296 296 296 296 296 296 296 296 296 296 297 298 298 298 298 299 299 299 300 300 300
297 297 296 296 296 295 295 294 293 293 293 292 292 293 294 294 294 295 297 298 296 296 297 297 298 297 297 297 296 296 297 297 298 297 297 298 298 298 299 299 299 300 301
297 297 296 296 295 295 294 293 291 292 293 294 294 294 294 294 295 294 295 297 297 297 297 297 297 295 295 295 296 296 297 296 296 298 297 297 297 297 298 299 299 299 299
297 296 296 295 295 294 293 290 292 293 293 294 294 294 293 293 294 294 295 294 294 295 295 296 296 296 297 295 295 295 295 296 297 297 297 297 297 296 296 297 299 300 300
296 296 295 294 294 292 289 291 292 294 293 293 293 293 294 294 294 294 294 295 295 296 295 295 295 295 295 295 296 296 296 296 296 296 297 296 297 297 297 297 296 299 299
296 295 294 293 291 289 291 292 292 293 293 293 293 293 294 294 294 294 295 297 296 295 295 296 295 296 295 296 296 296 297 295 296 296 297 297 297 298 298 297 298 298 298
294 294 292 289 289 291 291 291 292 293 293 293 293 294 295 294 295 295 295 295 295 295 295 294 294 294 294 293 294 295 296 296 296 296 297 297 297 298 298 298 298 299 299

GFSMA_850_thetae_093.txt.gz
Theta_e
310 310 310 310 310 310 310 310 310 309 309 309 309 309 309 308 307 306 306 305 305 304 303 303 305 310 313 307 307 308 307 315 324 326 329 324 332 333 331 330 326 321 317
311 310 310 310 310 310 310 309 309 309 309 310 310 309 308 308 308 308 307 306 306 304 304 304 303 305 306 306 306 307 307 308 308 321 324 330 327 326 333 334 333 328 322
310 310 310 310 309 309 309 309 309 310 310 310 310 310 309 308 308 307 307 306 305 304 303 303 304 304 304 304 305 305 305 306 307 307 314 323 327 331 326 327 330 332 332
309 310 310 310 308 307 308 310 310 310 311 311 311 310 310 309 308 307 307 306 304 304 305 303 303 303 303 304 304 305 305 304 305 306 308 309 321 325 331 328 326 329 330
308 308 310 310 307 308 309 309 310 309 311 311 310 309 310 309 309 307 306 306 305 305 305 304 303 302 302 302 302 302 303 305 305 305 306 308 308 315 324 328 330 327 329
308 310 310 309 309 308 310 309 310 310 309 310 310 310 311 310 309 308 307 305 305 306 305 304 303 302 302 302 301 301 301 302 304 305 305 304 308 309 310 322 326 331 329
307 307 310 311 309 309 311 309 309 309 311 311 310 311 311 311 309 307 306 306 307 306 305 304 303 303 302 302 301 301 300 300 301 303 305 305 304 306 309 309 317 324 330
308 308 310 309 309 306 308 309 309 309 311 310 310 309 310 311 310 308 306 306 306 305 304 304 304 303 302 301 300 300 300 300 300 300 301 303 304 304 304 307 309 310 322
308 307 308 309 310 310 310 311 310 309 309 310 310 309 309 309 309 308 308 307 306 305 304 303 303 302 302 301 301 301 300 299 299 299 300 300 301 303 304 304 306 310 309
307 307 308 310 310 311 311 310 310 309 309 309 309 309 308 307 307 306 306 305 305 304 303 303 302 301 301 301 300 300 300 298 298 298 299 299 299 300 301 304 304 307 312
308 309 309 310 310 310 310 309 309 309 308 308 308 309 308 307 306 305 305 304 304 303 302 302 301 301 300 300 300 300 300 299 297 297 297 298 299 299 299 308 309 305 313
309 308 308 309 309 309 309 309 308 308 308 307 307 306 306 305 305 304 303 303 302 301 301 300 300 300 299 299 300 299 299 298 297 297 297 297 297 298 298 302 309 311 313
311 310 309 309 309 308 308 307 306 306 306 305 305 304 304 303 302 302 301 300 300 300 299 299 299 299 299 299 299 299 299 299 299 296 296 296 297 297 298 302 308 310 312
311 310 308 308 307 305 303 303 302 303 303 302 302 301 301 300 300 299 299 299 299 299 298 298 299 299 299 299 299 298 298 298 299 300 299 297 299 301 303 305 306 306 308
308 306 303 302 302 302 301 300 301 301 300 300 299 299 299 298 298 298 298 298 298 298 298 298 298 298 298 298 298 298 298 298 299 299 299 300 301 302 303 303 304 305 306
303 302 302 301 300 300 300 300 299 299 299 298 298 298 298 298 297 297 297 297 297 297 297 297 297 297 297 297 297 297 298 297 298 298 299 299 300 301 301 301 302 302 304
302 301 300 299 300 299 299 298 298 298 298 298 297 297 297 297 297 296 296 296 296 296 297 296 297 297 297 297 297 297 297 297 297 298 299 299 300 300 300 300 300 301 302
301 299 300 299 298 298 298 298 298 297 297 297 297 297 297 296 296 296 296 296 296 296 296 297 297 297 296 297 297 298 298 298 298 298 298 299 299 299 300 299 299 300 301
300 299 298 298 298 298 298 297 297 297 297 297 296 296 296 296 296 296 295 295 295 295 296 296 296 295 296 297 297 297 297 297 297 297 298 299 299 299 299 299 298 298 299
298 298 298 298 298 297 297 297 297 296 296 296 297 297 297 296 296 295 295 295 295 296 296 296 296 297 297 296 297 297 297 297 297 297 298 298 298 299 300 300 300 299 299
298 298 298 298 298 298 297 297 296 296 296 296 296 295 295 295 296 297 296 296 297 296 296 296 297 296 297 297 297 297 297 297 297 297 297 298 297 298 298 299 300 301 300
298 298 298 298 298 297 297 296 296 296 296 294 294 295 295 295 294 295 296 297 297 297 297 297 297 297 297 297 296 296 296 296 296 297 297 297 298 297 298 299 299 300 300
299 298 298 298 297 297 296 296 296 294 293 294 294 294 294 294 295 295 295 296 296 297 298 297 297 297 297 296 297 297 297 297 296 296 297 298 297 297 299 299 300 300 300
298 298 297 297 297 296 296 295 293 293 293 293 294 294 294 294 295 295 295 295 295 296 296 296 296 296 296 297 297 297 298 298 297 297 297 297 297 298 298 298 299 299 299
297 297 297 296 296 295 293 293 293 293 293 293 293 293 294 294 295 295 295 295 296 296 296 296 296 297 298 297 297 297 298 297 297 297 296 297 297 297 297 298 298 299 299
297 296 296 295 294 292 293 293 293 293 293 293 293 294 294 294 295 295 295 295 294 295 295 295 295 295 296 295 296 296 295 295 295 296 295 296 296 296 297 297 297 298 299

GFSMA_850_thetae_096.txt.gz
Theta_e
310 310 309 309 310 310 309 309 309 309 309 309 309 309 309 309 309 309 308 307 306 305 304 304 305 307 305 305 306 306 307 307 316 323 329 326 331 332 331 330 325 320 317
310 310 310 309 309 310 310 309 309 309 309 310 310 309 308 308 308 309 309 308 307 305 304 304 304 304 304 304 304 304 305 306 307 308 322 327 329 326 332 334 333 327 321
310 310 310 309 309 309 309 309 309 310 310 311 310 310 309 309 308 308 308 308 307 306 306 305 304 303 303 303 303 304 304 304 304 306 307 315 324 329 327 326 331 333 331
310 310 310 310 309 309 308 309 309 310 311 310 310 309 310 310 309 308 308 307 305 305 306 305 305 304 304 303 303 303 302 303 304 304 305 307 309 322 325 329 326 327 331
308 309 309 309 308 307 308 308 308 308 309 310 309 309 310 310 310 309 307 307 306 305 306 306 305 304 304 303 303 302 302 302 302 304 305 305 307 308 317 323 328 327 327
308 308 310 310 308 307 308 307 309 309 309 309 309 309 311 311 311 309 308 307 306 307 307 306 305 303 303 302 302 301 301 301 301 302 303 305 305 306 308 311 323 325 329
307 309 309 309 309 309 308 308 309 309 309 311 310 309 310 309 311 310 308 308 306 307 306 305 305 304 303 302 301 300 300 300 300 301 301 302 304 304 305 306 308 319 324
307 307 308 309 308 307 306 307 308 309 309 310 310 310 309 309 309 309 308 308 307 307 306 305 304 304 303 302 301 300 300 300 299 300 300 300 301 302 304 304 306 307 311
307 308 308 307 308 307 308 310 311 310 309 308 310 310 309 309 309 308 308 307 307 306 305 304 304 303 303 301 301 301 300 300 299 298 299 299 300 300 301 303 304 308 308
308 307 307 307 309 310 311 310 310 310 309 309 308 309 309 309 308 307 307 306 305 305 304 304 303 302 302 301 301 300 300 299 299 297 297 298 298 299 299 300 302 306 312
307 307 308 309 310 310 310 310 310 309 309 308 308 308 308 308 308 307 306 305 305 304 303 302 302 301 300 300 300 300 299 299 298 298 298 297 297 298 299 300 303 309 311
309 309 310 310 310 310 310 309 309 309 308 308 308 307 307 306 305 305 304 303 303 302 301 300 300 300 300 299 299 299 299 299 299 298 298 298 297 297 298 300 303 308 312
311 310 309 309 309 309 309 308 308 307 305 304 304 305 305 305 304 303 302 302 301 300 299 299 297 297 298 298 299 299 299 299 299 299 298 297 299 300 298 300 305 307 310
312 311 310 309 308 308 307 304 302 302 301 301 301 301 301 300 299 299 299 299 299 298 298 297 298 298 298 299 299 299 299 299 298 299 301 301 301 302 301 303 305 306 308
311 311 309 307 304 303 302 301 300 299 299 299 300 300 299 299 298 298 298 298 298 298 298 297 297 297 297 297 297 297 298 298 298 299 299 300 300 301 302 303 304 305 307
308 305 303 302 302 301 300 299 299 299 299 298 298 298 298 298 297 297 297 297 297 297 297 296 296 297 297 296 296 297 297 297 297 298 298 298 299 300 300 301 302 302 302
304 303 302 301 299 299 299 298 298 298 298 298 297 297 297 297 297 297 297 296 296 296 296 296 296 296 296 296 296 297 297 297 298 297 298 298 299 299 300 301 301 301 301
302 301 299 299 298 298 298 298 298 298 297 297 297 297 297 297 296 296 296 296 296 295 296 296 295 296 296 297 297 295 295 296 297 297 298 299 299 299 300 300 299 300 300
300 299 299 298 298 298 298 297 297 297 297 297 296 296 296 296 296 297 297 296 296 296 295 295 295 295 296 296 296 296 297 297 297 297 297 298 298 299 299 299 299 299 298
299 298 298 298 298 298 297 297 297 297 297 296 296 296 296 297 297 296 295 295 296 296 296 296 296 296 296 296 296 296 296 296 296 297 297 297 297 298 299 299 299 299 299
298 298 298 298 298 298 298 297 297 297 296 296 296 296 295 294 296 297 298 297 296 296 296 296 296 297 295 296 297 296 297 297 297 296 297 296 297 297 297 297 298 299 300
298 298 298 298 298 298 298 298 298 297 297 296 295 293 293 294 293 294 296 296 297 297 297 297 297 296 296 298 296 296 296 296 296 296 296 296 297 297 296 298 297 298 299
299 298 298 298 298 297 297 297 298 297 295 294 293 293 293 293 294 294 294 295 296 295 296 297 297 297 297 296 296 296 297 297 296 296 296 296 296 297 297 297 297 298 299
298 298 298 297 297 297 296 297 296 294 293 293 293 293 293 293 293 294 295 295 295 295 295 295 296 296 296 296 297 297 297 297 297 297 297 297 297 296 296 297 296 298 299
298 297 297 297 296 295 295 294 294 294 293 293 293 293 293 293 294 295 296 296 296 295 295 295 296 296 297 298 297 297 297 297 296 295 296 296 296 296 296 296 296 296 298
297 297 296 295 295 294 293 293 294 293 293 292 292 292 293 294 295 295 296 296 295 295 294 294 294 295 296 296 295 297 296 296 295 295 294 295 295 295 296 295 296 296 296

GFSMA_850_thetae_102.txt.gz
Theta_e
308 307 308 308 308 308 308 308 308 309 309 309 309 309 309 309 309 309 308 307 306 306 305 305 305 305 304 304 304 304 305 307 314 324 326 326 331 331 330 330 323 318 320
308 308 308 308 308 309 308 308 308 309 309 310 309 309 309 309 309 309 308 307 306 306 306 305 305 305 305 304 304 304 303 304 304 307 317 326 329 326 331 332 331 326 319
309 308 308 309 309 309 308 308 309 309 309 310 309 309 309 309 310 310 309 308 307 306 306 306 306 305 304 304 304 304 303 303 303 304 304 308 321 327 328 326 332 333 329
310 309 309 308 309 308 308 308 308 308 309 310 309 309 309 309 310 310 310 309 309 307 306 307 306 306 305 305 304 303 302 302 303 303 303 304 306 312 323 328 327 328 332
310 309 309 308 308 308 308 308 308 308 308 309 309 309 309 309 310 310 310 309 309 307 307 307 306 306 305 305 304 303 303 301 301 301 302 302 303 304 308 317 324 327 327
309 309 309 309 308 308 308 307 307 307 308 308 308 308 309 309 310 310 310 309 308 307 307 307 306 305 305 305 304 303 302 301 301 300 300 301 301 303 304 306 311 320 325
309 309 309 309 309 308 307 307 307 307 308 308 308 308 308 309 310 310 310 308 308 307 306 306 305 305 304 304 304 303 302 301 300 299 299 299 300 300 301 303 304 307 316
309 308 309 308 308 308 307 307 307 307 308 308 308 308 308 308 308 308 309 307 307 307 306 305 305 304 304 303 303 302 302 301 300 299 300 299 298 299 300 300 302 304 306
309 307 308 308 308 308 308 307 306 306 308 309 309 308 308 308 308 308 308 307 307 306 306 306 305 304 303 302 302 301 301 301 300 300 300 302 299 298 299 301 302 302 303
309 307 308 308 308 308 308 307 308 309 309 309 309 309 308 308 309 308 307 307 307 307 307 306 304 303 302 302 301 300 300 300 300 300 299 299 304 305 300 299 303 307 306
309 308 308 308 308 308 307 309 310 310 309 309 309 309 308 308 308 308 308 307 307 307 306 304 303 303 301 300 299 298 299 299 299 300 301 302 303 304 305 304 304 307 308
310 309 308 308 308 308 308 309 310 310 310 309 309 309 308 308 307 307 306 305 304 304 303 302 300 298 297 296 296 296 297 297 298 298 301 302 302 302 303 304 305 306 307
309 309 309 309 308 309 309 309 309 309 309 309 308 307 306 306 306 305 304 303 300 298 297 296 296 296 295 295 295 295 296 297 298 298 300 302 302 302 303 303 304 304 305
309 309 308 309 310 310 310 309 309 308 307 305 302 301 300 301 301 300 299 298 298 297 297 296 296 295 295 295 295 295 296 296 296 297 301 301 301 301 301 302 302 303 303
310 310 310 310 310 310 309 308 306 303 302 300 299 298 298 297 297 297 297 297 297 297 296 296 296 295 295 295 295 295 295 295 295 296 296 298 300 300 301 301 301 301 302
311 311 311 311 311 308 305 303 302 300 299 298 298 297 297 297 297 297 296 296 296 296 296 296 296 296 295 295 295 295 295 294 295 295 296 297 297 299 300 300 300 300 301
311 311 310 308 304 303 302 300 299 298 298 297 296 296 296 297 296 296 296 296 296 296 296 296 296 296 296 296 295 295 295 294 295 295 296 296 296 298 299 299 300 300 301
308 306 303 302 301 300 299 298 297 297 296 296 296 296 296 296 296 295 295 295 295 296 296 296 296 296 295 295 295 295 295 295 295 295 296 296 298 298 299 299 299 300 300
303 302 300 299 299 298 297 297 297 297 296 296 296 296 296 296 296 296 295 295 295 295 295 295 295 295 295 295 295 295 296 295 295 296 296 296 297 297 297 298 299 299 298
300 299 299 298 298 297 297 297 297 297 297 297 297 297 297 297 296 295 295 294 295 296 296 295 295 294 294 295 295 296 296 296 296 296 296 297 296 296 297 298 298 299 298
298 298 298 298 297 297 297 297 297 297 297 297 297 297 296 295 295 295 295 294 294 294 295 296 296 296 296 296 296 295 296 296 297 297 296 296 296 296 296 296 297 297 297
298 297 297 297 297 297 298 298 297 298 298 298 297 296 295 294 293 293 294 295 295 296 296 296 297 295 295 295 296 295 295 295 295 295 295 295 296 296 296 296 296 296 296
297 297 297 298 298 297 297 297 297 297 297 297 296 295 294 292 292 292 292 293 293 294 295 295 296 296 296 295 295 295 296 296 296 295 295 296 296 296 296 296 296 296 296
297 297 296 296 296 296 295 295 296 296 295 294 294 293 293 292 292 292 292 293 294 294 295 296 295 295 295 295 295 295 297 296 297 296 296 296 296 296 296 296 296 296 296
296 295 295 295 295 295 294 294 294 294 292 292 292 292 292 292 292 293 294 295 295 294 295 295 296 296 296 297 297 297 296 295 296 296 296 295 295 296 296 295 295 295 295
296 296 295 295 294 294 294 293 292 292 293 292 292 292 292 292 292 294 294 294 294 294 296 295 296 296 295 295 295 294 293 293 293 294 295 296 296 295 294 294 294 294 294

GFSMA_850_thetae_108.txt.gz
Theta_e
308 307 307 307 307 308 308 308 308 309 309 309 308 308 308 308 308 307 307 306 306 306 306 305 305 305 305 304 304 304 304 304 305 311 323 325 329 330 331 331 329 319 320
306 307 307 307 308 308 308 308 308 309 309 308 308 308 309 309 309 308 306 306 306 306 306 306 306 306 305 305 305 304 304 304 304 303 304 309 322 325 329 330 331 330 324
306 307 307 307 308 308 308 308 308 309 308 308 308 308 309 309 309 309 308 308 307 307 307 306 306 306 305 305 305 304 304 304 303 303 303 303 305 312 324 327 329 331 331
307 308 308 308 308 308 308 308 308 308 308 308 308 308 308 309 309 309 309 309 308 307 307 306 306 305 305 305 305 305 304 304 303 302 302 302 303 303 306 316 325 326 330
309 308 308 308 308 308 308 308 308 308 308 308 308 308 308 309 309 309 309 309 308 308 307 307 306 306 305 305 305 305 304 304 303 302 301 301 301 301 302 303 307 319 325
310 309 308 309 309 308 308 308 308 308 308 308 308 308 308 308 309 309 309 309 308 308 307 307 307 306 305 305 305 304 304 303 302 301 300 300 300 300 300 301 302 304 311
310 309 309 309 309 308 308 308 308 308 308 308 308 308 308 308 309 308 308 309 308 307 307 307 307 306 305 305 304 303 302 302 302 301 301 301 301 300 299 299 300 301 303
310 310 309 309 309 308 308 308 307 307 307 308 308 308 308 308 308 308 308 309 308 307 307 307 306 306 306 305 304 302 302 302 302 301 302 302 303 302 301 299 299 299 300
310 310 309 309 309 308 308 308 307 307 307 307 308 308 308 308 308 308 308 308 307 306 306 307 306 306 306 305 304 302 302 302 302 301 301 304 305 305 306 306 302 299 299
310 310 310 310 309 309 309 308 307 308 307 307 308 309 309 308 308 308 307 307 306 306 307 307 306 306 305 304 302 301 300 300 300 299 298 300 305 305 305 306 307 305 303
322 310 310 309 310 309 309 308 308 308 307 309 309 309 309 309 308 308 308 307 307 307 306 306 306 305 303 301 297 296 296 295 295 295 295 296 298 305 305 305 306 306 307
322 319 310 309 309 309 309 309 309 308 309 310 309 309 309 308 308 308 307 307 306 306 305 305 303 300 297 296 295 295 295 295 295 295 295 295 296 302 304 304 305 305 305
324 316 309 309 309 310 309 309 309 309 309 309 309 309 308 308 307 306 304 303 302 301 300 298 297 295 295 295 295 295 294 294 294 294 294 295 295 298 303 304 303 304 304
325 315 309 309 309 309 309 309 309 309 309 309 309 308 307 303 301 300 299 299 298 297 296 295 295 295 295 295 295 295 295 295 295 295 296 295 295 296 300 303 303 303 303
321 318 310 309 309 310 309 309 309 309 309 308 306 303 301 299 298 297 297 296 296 296 295 295 295 295 295 295 294 295 295 295 295 295 297 297 298 297 298 299 302 302 302
313 310 309 310 310 310 309 309 309 308 306 303 301 299 298 297 297 296 296 296 296 295 295 295 295 295 295 294 295 295 295 295 295 294 295 296 297 298 298 299 300 300 301
311 310 310 310 309 309 309 308 306 303 301 299 298 297 296 296 295 295 295 295 295 295 295 295 295 295 295 295 295 294 293 294 294 294 294 294 295 297 298 298 299 299 299
310 309 309 309 308 307 305 302 300 299 298 297 296 296 295 295 295 295 295 295 296 296 295 295 295 294 294 293 294 294 293 294 294 294 295 295 295 297 297 297 298 298 299
309 308 306 305 302 301 299 299 298 297 297 296 296 296 296 295 295 296 296 295 295 295 295 294 294 293 293 293 293 294 295 296 295 296 296 295 295 296 295 296 298 298 299
303 302 301 300 299 298 298 297 297 297 296 296 296 296 296 296 296 296 296 295 295 294 294 293 294 294 294 294 295 295 295 295 295 295 295 295 295 296 296 296 297 297 298
300 299 298 298 298 297 297 297 296 297 297 297 297 297 297 296 297 297 296 296 295 294 294 293 294 294 293 294 294 294 295 294 295 294 295 295 295 295 295 295 296 296 297
297 297 296 296 296 296 296 297 297 297 297 297 297 297 296 296 296 296 296 295 295 294 294 294 295 295 296 296 294 294 294 294 296 294 294 295 295 296 296 295 295 296 296
295 295 295 295 295 295 295 295 295 296 296 296 296 296 295 295 294 293 293 292 292 292 293 293 294 294 295 294 295 294 295 295 295 294 294 294 296 296 296 296 296 295 296
296 295 295 295 295 295 294 294 294 295 294 294 294 294 293 292 292 292 291 292 292 292 293 293 293 294 295 294 295 295 295 295 295 295 295 295 295 295 295 295 296 296 296
296 295 295 294 294 294 294 293 293 292 291 291 290 290 291 291 291 292 293 293 294 294 294 294 294 295 295 296 296 297 296 295 295 295 294 295 295 294 294 294 294 294 296
296 295 294 293 293 292 291 290 290 290 290 290 291 291 291 291 292 293 292 292 292 292 292 293 294 295 294 294 294 293 293 293 293 292 293 293 293 292 293 294 295 295 296

GFSMA_850_thetae_114.txt.gz
Theta_e
324 323 321 319 316 307 307 307 309 310 313 316 318 318 317 317 318 317 313 308 308 308 307 307 306 306 306 306 306 305 305 305 304 304 305 314 324 327 330 330 326 322 327
321 320 318 313 308 308 308 309 310 310 310 311 311 313 313 313 314 315 315 307 307 307 308 307 307 306 306 306 306 306 305 305 305 304 304 304 304 315 326 328 329 330 323
318 316 313 309 308 308 309 310 310 309 309 309 310 310 311 311 311 310 312 312 307 307 307 306 306 306 306 306 305 305 305 305 305 305 304 303 303 303 304 320 327 328 329
313 310 309 309 308 308 308 308 308 309 310 310 310 310 310 310 310 309 308 308 308 309 307 307 306 306 305 305 305 305 305 305 305 305 304 304 304 303 302 303 306 323 326
307 307 308 307 308 308 308 309 309 310 310 310 310 310 310 310 310 309 309 309 308 308 307 307 306 306 305 305 305 305 305 304 304 304 303 303 303 302 302 302 301 303 310
306 307 307 308 308 308 308 309 309 310 311 311 310 310 309 309 309 310 309 309 309 308 307 307 306 306 306 305 305 305 305 304 303 303 302 304 304 303 302 301 301 301 301
307 307 307 308 308 308 308 309 311 309 309 311 311 310 309 309 310 309 309 309 308 308 308 307 307 306 306 305 305 305 305 304 304 302 301 300 304 309 308 306 302 301 300
309 308 308 308 308 308 308 309 308 310 310 308 311 312 311 310 308 309 308 308 308 308 308 307 307 306 306 306 305 305 304 304 303 301 300 299 300 305 308 308 308 307 303
310 308 308 309 308 308 308 308 308 308 308 308 308 310 311 311 312 309 308 308 308 308 308 307 306 306 306 306 305 305 304 303 301 299 297 297 297 300 306 309 308 308 309
318 310 309 309 309 309 309 308 308 308 308 308 307 307 308 311 311 312 309 308 308 307 307 307 306 306 306 306 305 305 303 300 297 296 296 296 297 298 300 304 308 308 308
326 318 312 309 309 309 308 309 309 308 308 308 307 309 307 308 310 311 311 311 308 307 307 306 306 306 304 305 304 302 299 296 295 295 295 295 296 298 301 304 306 307 308
324 320 315 310 310 313 309 309 308 308 308 308 308 310 310 311 311 310 310 310 310 309 306 306 306 305 304 303 300 297 295 295 295 295 295 295 295 295 296 301 304 306 307
321 321 318 317 318 314 310 308 308 309 309 308 309 308 309 310 309 309 310 310 309 308 305 304 304 302 300 298 298 296 295 294 294 294 294 294 295 295 296 296 301 304 306
320 319 318 317 315 311 308 308 309 309 309 309 309 309 309 309 309 309 308 307 306 304 303 302 301 300 298 298 298 295 295 297 295 295 295 295 295 295 295 298 301 303 304
322 320 318 317 311 309 309 309 309 309 309 309 309 309 309 309 308 306 303 301 301 302 302 301 299 298 298 297 297 297 297 297 297 295 295 295 295 296 296 298 300 301 302
322 320 319 316 309 309 310 310 310 309 309 309 309 308 308 306 302 301 299 299 299 299 299 298 298 298 297 297 297 296 296 296 295 295 295 294 293 293 294 296 297 299 301
320 319 317 315 313 311 311 309 309 308 308 308 307 304 302 300 298 298 297 297 298 298 297 297 297 297 297 297 297 297 296 297 296 296 296 294 293 293 294 297 298 299 299
312 312 311 311 308 308 308 308 307 306 305 303 300 299 298 297 297 298 298 297 297 297 297 297 297 297 297 297 296 296 296 296 295 296 296 295 295 295 295 296 297 298 298
309 308 308 307 307 306 305 304 302 300 299 298 298 297 298 298 298 298 298 297 297 297 297 297 297 297 297 296 296 296 296 296 297 296 296 295 295 295 296 296 297 299 298
306 306 305 304 303 301 300 299 298 298 298 298 298 297 297 297 297 298 298 298 297 297 297 297 296 296 296 296 296 296 296 296 296 296 296 296 296 295 295 295 296 298 298
300 299 299 298 298 297 297 298 298 298 298 298 298 298 298 298 297 297 298 297 297 297 297 297 297 295 296 296 295 296 296 296 296 295 296 297 297 297 297 297 296 295 296
296 296 295 295 295 295 295 295 295 298 299 299 298 298 298 298 297 297 297 297 298 298 297 296 296 296 296 295 295 295 295 296 296 296 296 296 296 297 297 297 297 296 296
294 294 294 294 294 294 294 294 294 297 297 297 296 296 296 295 295 295 295 295 295 295 295 295 295 294 294 295 295 295 295 295 295 296 295 295 295 296 296 297 297 295 295
294 294 295 294 294 294 293 293 293 294 295 295 294 294 293 293 293 293 293 293 293 294 294 293 294 294 294 295 295 295 296 296 296 296 296 296 295 296 296 296 297 296 295
295 295 294 294 293 293 293 292 292 292 293 293 292 292 292 292 293 293 293 293 293 294 294 294 295 295 295 296 295 297 297 297 296 295 295 295 295 296 296 296 296 296 295
295 294 293 292 292 290 290 289 289 291 292 293 293 292 292 292 292 293 293 293 293 293 294 294 294 294 295 294 294 294 295 296 296 295 295 295 295 294 294 295 295 296 295

GFSMA_850_thetae_117.txt.gz
Theta_e
326 325 325 325 323 315 312 314 317 319 320 321 320 319 320 320 319 319 314 314 315 314 314 311 308 307 306 306 306 306 305 305 304 304 304 305 315 325 328 330 327 322 328
325 324 323 319 317 311 312 313 313 314 315 316 316 316 316 317 317 318 313 309 310 310 310 310 309 307 306 306 306 306 306 306 305 305 305 304 304 304 316 326 327 329 326
323 322 320 315 312 311 312 312 312 313 313 313 313 313 313 314 316 317 315 308 307 307 307 306 306 306 307 306 305 306 305 305 305 305 305 304 304 303 303 305 323 326 328
321 319 316 312 311 311 312 312 312 313 313 313 312 312 312 312 312 313 314 314 313 309 307 306 306 306 305 305 305 305 305 305 305 305 304 304 304 304 303 302 303 306 324
318 315 313 312 311 311 312 312 312 312 312 312 312 312 312 312 312 311 311 309 308 309 308 307 306 306 306 305 305 305 305 305 305 304 304 303 303 303 303 303 303 302 303
314 312 312 312 311 311 312 312 313 312 312 312 311 312 312 312 312 312 311 311 309 308 308 307 307 306 306 305 305 305 305 305 305 304 303 302 301 302 305 303 302 302 302
311 312 312 311 311 311 312 312 313 313 313 312 312 312 312 312 312 312 311 310 310 309 308 307 307 307 307 306 306 305 305 305 304 304 302 300 300 303 307 309 308 303 301
312 307 308 309 309 312 313 313 313 313 313 313 313 313 313 312 311 311 311 311 310 309 308 308 307 307 306 306 306 305 305 305 304 302 300 298 297 299 304 308 310 309 306
315 307 307 308 308 312 313 313 312 313 313 312 312 313 312 312 313 312 310 309 309 309 309 308 307 306 306 306 306 305 305 304 302 300 298 297 296 297 301 303 306 310 309
321 313 308 308 308 311 312 312 311 309 311 311 308 307 310 312 313 313 311 311 310 310 309 308 307 306 306 306 305 305 304 303 300 298 296 296 296 297 299 301 306 307 309
324 318 309 308 309 309 309 309 309 309 309 309 312 311 308 308 308 310 312 312 310 310 308 308 307 306 306 305 304 303 302 300 297 296 295 295 295 295 298 300 302 305 307
326 325 322 315 310 309 309 309 309 308 309 309 309 310 311 311 311 311 311 312 312 311 310 308 307 306 305 305 303 301 299 297 295 295 295 295 295 295 297 300 303 304 305
324 323 317 315 314 310 311 310 310 310 308 308 309 310 311 311 312 312 311 311 311 311 310 308 307 306 305 303 300 299 298 296 295 294 294 295 295 295 295 297 302 303 304
320 321 320 318 316 313 313 311 311 309 308 308 308 309 309 309 310 310 309 310 309 309 308 305 304 303 302 300 299 299 298 298 298 297 295 295 295 295 295 298 301 302 303
320 320 319 319 315 314 314 312 310 308 308 308 309 309 309 309 309 309 308 306 304 303 304 304 303 301 300 299 299 298 297 298 298 298 297 295 294 295 295 297 300 301 301
322 320 319 317 316 316 313 310 308 308 309 309 309 309 308 307 307 306 303 301 301 301 301 300 300 300 299 299 298 298 298 297 297 298 298 297 295 294 294 294 294 298 300
321 320 318 317 317 315 310 309 309 310 310 310 309 308 306 304 302 300 301 301 300 298 299 299 299 298 298 298 298 298 298 297 297 297 297 297 297 296 294 293 294 296 299
317 317 316 316 314 312 311 310 310 309 307 306 304 303 301 299 299 301 300 299 299 299 298 298 298 298 298 298 298 298 297 296 296 297 297 298 298 296 294 295 296 297 298
310 311 311 309 307 306 305 304 303 302 301 301 300 300 298 298 298 299 299 299 299 298 298 298 298 298 298 297 297 297 297 296 297 297 297 298 298 297 296 295 297 297 297
306 305 305 305 304 303 302 301 300 299 299 299 299 299 299 298 298 298 298 298 299 299 298 298 298 298 297 296 296 297 297 296 296 296 296 296 297 297 296 296 295 296 297
301 300 300 300 299 299 299 299 299 299 299 299 299 299 299 299 299 298 298 298 298 298 298 298 297 297 297 296 296 296 296 295 296 296 296 295 296 296 296 297 297 297 296
297 297 297 296 297 297 295 294 294 295 298 299 299 299 298 298 298 298 298 298 298 297 297 298 297 297 297 297 297 296 296 295 295 296 296 296 296 296 296 296 297 298 297
298 298 298 297 297 297 296 294 294 294 296 297 297 297 296 296 296 296 296 296 296 296 296 296 295 295 295 295 295 295 295 296 295 295 296 296 296 296 296 296 296 297 297
298 298 297 296 296 296 295 293 293 293 295 295 295 295 294 294 294 294 294 294 294 294 294 294 294 294 293 294 294 294 295 296 296 296 296 297 296 296 296 296 297 296 297
297 296 296 295 294 293 293 291 290 290 292 293 293 294 294 294 294 294 294 293 293 293 294 294 295 295 295 296 296 296 296 297 296 296 296 296 296 295 296 296 296 296 296
294 293 293 293 293 292 292 291 292 291 293 293 293 292 291 292 293 293 292 292 293 293 294 294 294 294 294 295 294 294 294 295 295 296 295 296 296 296 295 295 294 295 296

GFSMA_850_thetae_123.txt.gz
Theta_e
333 330 322 317 309 311 316 319 323 323 323 323 323 322 319 311 310 310 309 308 308 308 307 307 306 306 306 306 306 305 305 305 305 305 305 305 304 306 316 325 326 323 326
328 324 325 323 315 310 314 321 321 320 320 320 320 319 318 314 309 309 309 309 308 308 308 307 306 306 306 305 305 305 305 305 305 305 305 305 305 304 304 306 317 325 325
326 325 327 325 321 311 316 320 318 320 318 317 318 317 317 314 311 308 308 307 307 307 307 306 306 306 306 305 305 306 306 306 306 305 305 305 304 304 304 304 303 308 322
326 325 325 324 321 311 314 316 316 320 317 316 315 314 314 314 313 312 309 308 307 307 306 306 306 306 306 305 305 306 306 306 306 306 305 305 304 303 303 303 304 304 303
325 325 323 321 314 312 313 313 313 313 313 313 312 313 312 313 312 311 310 310 309 308 307 307 306 306 305 305 305 306 306 306 306 306 305 304 303 302 301 302 302 302 303
324 324 322 318 311 312 312 312 312 312 312 312 312 311 311 311 311 311 311 310 309 308 308 307 307 306 306 306 305 306 306 306 306 306 305 304 303 301 300 299 300 301 301
322 321 319 315 311 312 312 312 312 312 312 312 312 312 312 312 311 311 311 311 310 310 309 308 308 307 307 306 306 305 305 306 306 306 305 303 302 300 299 299 298 300 304
321 320 316 313 311 311 312 312 312 312 312 311 311 312 312 311 311 311 311 311 311 310 310 309 308 308 307 307 306 306 305 305 305 305 304 303 301 299 298 297 297 298 300
318 316 313 312 311 311 311 312 312 312 312 311 311 312 313 313 312 311 312 311 311 310 310 309 309 308 308 307 307 307 306 305 305 304 302 299 298 297 297 296 297 297 297
316 313 312 312 311 311 312 312 313 313 312 312 312 312 312 312 311 312 311 311 311 310 310 309 309 309 308 308 307 307 306 305 304 303 301 298 297 296 296 296 298 299 300
316 314 312 312 311 311 312 311 312 311 312 313 311 310 309 308 308 308 308 308 310 311 310 309 309 308 308 307 307 307 306 304 304 302 301 299 296 295 295 297 299 304 304
320 315 312 312 311 312 312 312 311 313 313 310 310 308 308 308 310 311 310 311 312 311 310 310 309 308 308 306 306 306 305 303 302 302 301 299 296 295 296 301 303 304 304
328 319 317 311 311 312 313 312 312 313 313 310 309 308 309 309 311 312 312 312 311 311 311 310 310 309 307 305 305 305 304 302 301 301 300 298 296 296 297 301 302 303 303
324 324 321 314 311 309 311 311 313 312 309 310 310 309 308 309 310 311 311 311 311 309 309 309 306 306 305 303 303 302 301 301 300 300 299 298 297 297 301 301 301 302 302
321 320 318 317 314 312 310 311 310 309 311 310 309 309 308 308 309 309 309 309 309 308 307 306 305 304 303 306 302 303 302 300 298 298 298 298 298 299 300 300 300 301 302
320 320 319 318 315 314 312 313 312 311 310 310 309 308 308 309 309 308 308 308 309 309 305 305 306 305 303 300 299 299 298 298 298 298 298 297 297 298 299 299 299 299 300
320 319 318 317 316 314 312 310 310 311 309 308 308 309 309 308 308 310 309 306 302 301 301 301 299 298 298 299 299 298 298 298 297 297 297 297 298 299 299 300 299 299 299
317 316 315 313 312 311 311 310 309 309 309 309 310 310 308 307 303 301 299 298 299 299 299 299 298 298 298 298 297 297 296 297 297 297 296 297 298 297 297 297 298 298 298
314 313 312 312 311 310 309 307 305 304 304 303 302 301 301 300 299 299 299 298 299 298 298 299 298 298 298 298 298 298 298 297 296 295 296 296 296 295 295 296 297 297 298
308 307 308 307 306 305 303 303 302 301 301 300 300 299 299 299 298 298 298 298 298 298 298 298 298 298 297 297 297 297 297 297 296 296 296 296 295 295 296 296 297 298 297
304 304 305 304 303 302 301 301 300 300 299 299 298 299 298 299 299 299 300 299 298 298 297 297 296 296 296 296 296 295 295 295 295 295 295 294 294 295 295 295 295 296 296
299 298 298 297 297 296 295 295 294 294 293 293 294 296 297 298 299 298 298 297 297 297 296 296 295 295 295 295 295 295 294 294 294 293 294 293 294 295 295 295 295 295 296
296 296 295 295 294 294 294 294 294 293 293 293 293 294 294 294 294 294 294 294 293 293 293 294 293 293 293 293 293 294 293 294 293 294 294 294 294 295 296 295 296 296 296
296 296 295 294 294 294 293 293 293 292 292 291 291 292 292 293 293 293 294 294 293 293 292 292 292 292 294 295 296 296 295 296 295 296 296 295 295 295 295 295 296 296 295
295 294 294 293 293 293 293 292 291 290 291 291 292 293 293 293 292 293 293 293 293 293 293 293 292 293 294 293 293 294 294 293 294 295 295 294 294 294 295 295 295 295 295
293 293 293 293 292 292 292 291 292 292 290 290 291 290 290 290 292 293 294 294 294 294 294 294 295 295 294 293 292 292 292 292 293 294 293 293 293 294 294 295 295 295 295

GFSMA_850_thetae_129.txt.gz
Theta_e
333 327 320 309 309 320 324 324 322 323 323 321 312 309 309 309 309 309 309 308 308 307 307 306 306 305 305 305 305 305 305 305 305 305 305 304 305 305 305 307 317 322 324
330 328 319 307 317 324 324 324 323 323 323 321 314 310 310 309 309 309 309 309 308 308 307 306 306 306 306 306 306 306 306 306 306 305 305 305 304 304 304 304 305 305 314
332 331 319 312 322 324 324 324 324 323 323 320 317 313 309 309 309 309 308 308 308 307 307 306 306 306 306 306 306 306 307 307 306 306 305 305 304 304 303 304 304 304 304
331 321 316 313 317 318 324 323 322 323 322 319 317 314 311 309 308 308 308 307 307 307 307 307 306 306 306 306 306 307 307 307 307 306 306 305 305 304 303 302 302 302 303
327 323 316 310 314 320 323 322 321 321 319 318 316 313 312 311 309 308 307 307 307 307 307 307 306 306 306 306 306 306 306 307 307 307 307 306 305 304 303 302 301 301 301
327 325 322 318 311 320 320 318 318 319 317 316 314 312 312 312 311 311 310 310 309 308 307 307 307 306 306 306 306 306 306 306 306 306 306 306 306 305 304 303 300 299 299
327 325 324 323 319 317 317 316 316 316 315 315 313 313 313 312 311 310 311 311 310 309 309 308 308 307 307 306 306 306 306 306 306 306 306 306 306 305 305 303 302 300 298
327 327 324 323 320 313 316 314 314 314 314 313 312 312 314 313 312 311 311 311 310 310 310 310 309 308 308 307 307 307 307 307 308 307 305 305 304 304 304 302 300 300 300
327 325 324 322 319 312 313 313 312 312 312 312 311 311 311 311 311 311 311 311 311 311 310 310 310 309 308 309 308 308 308 308 308 307 305 304 303 303 303 302 300 299 300
324 324 319 321 319 312 312 312 312 312 312 312 311 311 311 311 311 311 311 311 311 311 311 310 310 309 309 309 309 308 308 308 306 305 304 303 303 303 302 302 301 300 299
325 321 317 317 315 312 311 312 312 312 312 312 312 311 312 312 312 311 311 311 311 310 310 310 310 309 309 309 308 307 307 306 305 304 304 304 303 303 302 302 301 301 301
319 314 312 313 312 311 311 311 312 312 312 311 311 311 311 311 309 308 309 309 309 310 310 310 310 309 309 308 307 306 306 305 305 304 304 304 302 303 302 301 302 303 303
327 324 317 311 311 311 311 311 312 312 312 312 312 312 313 309 310 310 311 311 311 311 311 311 310 309 308 307 307 307 306 305 304 302 303 302 302 301 300 300 302 302 302
325 325 318 315 311 311 311 312 312 312 312 311 311 311 312 309 310 311 311 311 311 311 311 310 310 308 307 307 307 305 304 304 304 303 303 302 300 299 298 299 300 300 300
324 324 319 315 312 313 312 312 313 312 312 312 312 311 311 310 311 312 312 310 311 310 309 308 308 306 304 304 306 304 304 302 301 300 299 298 298 297 298 299 299 300 301
324 322 319 317 317 313 313 312 312 312 312 312 312 311 311 312 312 310 309 309 308 308 309 309 308 305 304 305 302 299 298 298 298 298 297 296 296 297 297 298 299 299 298
319 318 318 317 315 312 312 312 312 311 312 312 311 311 310 309 309 308 308 308 307 308 308 304 303 302 300 299 297 296 296 296 296 297 297 297 297 297 297 298 297 298 298
319 318 317 316 316 316 314 313 313 313 312 311 310 310 309 308 308 307 306 306 303 301 300 299 299 298 297 297 297 298 298 298 298 297 297 297 297 297 297 295 295 296 295
318 317 317 315 315 314 312 312 312 312 311 310 308 307 307 307 306 304 301 300 299 299 298 296 296 297 297 297 296 295 295 296 296 296 295 295 294 294 295 296 296 295 294
315 315 313 313 312 312 311 311 311 310 309 309 308 306 304 302 301 300 299 299 297 296 297 297 297 297 297 296 295 295 294 294 294 294 294 293 293 293 293 293 293 293 295
311 311 311 311 309 306 305 304 303 303 303 302 301 301 300 299 299 298 297 297 298 298 298 297 296 295 294 293 293 293 293 293 293 293 294 295 295 294 295 295 293 294 295
304 304 303 303 302 302 302 301 300 300 300 299 299 299 298 298 297 297 297 297 297 296 295 293 293 293 292 292 291 292 292 293 295 295 294 294 293 294 295 295 295 295 295
300 300 300 299 298 297 296 295 295 294 294 294 293 294 294 295 295 295 295 294 293 293 293 293 292 292 292 292 292 293 294 295 294 294 293 292 293 293 294 294 294 294 294
295 295 294 294 294 294 294 294 294 293 293 293 292 292 293 293 292 292 293 293 292 292 293 294 294 293 294 295 295 294 294 293 293 293 292 292 292 293 293 294 293 293 294
294 294 294 294 294 294 293 292 292 292 291 291 291 291 291 292 291 291 292 293 294 294 293 293 293 293 293 292 292 292 293 292 291 291 291 292 293 293 293 292 293 294 294
294 294 294 294 293 292 292 291 292 293 293 292 291 291 291 291 291 293 295 295 294 292 292 292 292 292 291 291 290 290 289 289 289 289 290 292 291 291 292 292 293 292 292

GFSMA_850_thetae_135.txt.gz
Theta_e
336 332 324 314 321 325 324 318 319 309 310 313 316 312 311 312 315 321 322 318 315 313 309 307 306 306 306 306 306 306 305 305 305 305 305 305 305 305 305 306 315 321 323
336 333 327 314 315 318 321 320 319 308 310 311 311 312 311 311 311 312 320 317 313 311 310 307 306 306 307 307 307 308 308 308 307 307 306 306 305 304 304 304 304 304 307
336 334 326 314 311 319 320 322 320 313 310 311 311 312 312 312 311 310 310 314 310 307 307 306 307 307 307 308 309 309 309 310 310 309 309 309 308 308 306 306 304 303 303
336 333 324 313 310 319 321 322 322 316 311 312 312 313 313 312 312 311 310 308 307 308 307 306 306 307 308 308 308 309 309 310 310 310 310 310 310 309 308 307 307 305 303
335 329 322 311 311 319 322 322 323 319 314 312 312 312 312 312 310 309 308 308 308 307 307 306 306 307 307 308 308 308 309 309 310 310 309 309 309 308 308 308 308 307 306
334 328 325 309 315 321 323 323 323 320 316 313 311 312 312 310 309 308 307 307 307 307 307 307 307 307 307 307 307 308 308 308 309 309 309 309 309 308 308 307 307 307 307
333 331 323 311 321 322 323 323 323 321 317 314 312 312 312 310 309 308 309 308 308 308 308 308 308 307 307 307 307 307 308 308 309 309 308 308 308 308 308 308 308 306 306
331 331 318 313 322 322 323 323 323 321 318 315 312 312 315 313 311 311 310 310 309 309 309 309 309 308 308 307 307 307 308 309 309 309 309 308 307 307 308 308 307 307 306
331 327 315 317 322 318 319 321 322 322 319 315 313 312 313 314 312 311 311 311 310 310 310 310 310 309 309 308 308 308 308 308 309 309 308 308 307 307 307 307 306 306 306
331 323 315 318 315 314 315 320 319 321 320 317 314 312 311 310 313 312 311 311 311 311 310 310 310 310 309 309 308 308 308 308 308 308 308 307 306 306 306 306 306 306 305
330 325 321 316 319 314 313 318 317 319 319 316 315 313 311 311 310 311 311 311 311 311 311 311 311 310 310 309 309 308 308 307 307 307 307 306 305 304 305 305 306 305 305
327 327 325 324 320 318 314 316 315 315 315 315 314 313 312 311 312 311 311 311 311 311 310 310 311 311 310 310 309 308 308 307 306 306 306 306 304 305 304 303 303 303 303
327 326 326 325 323 319 314 313 314 313 313 313 313 313 312 311 311 311 312 310 310 311 311 311 311 311 310 309 309 308 307 306 305 306 305 303 304 303 301 300 301 301 301
327 326 325 325 324 313 312 311 312 312 312 312 311 311 311 311 312 311 311 311 311 310 310 311 311 311 310 309 308 307 306 306 305 303 304 302 300 299 297 297 300 300 300
325 325 323 323 318 316 313 311 311 311 311 311 311 311 311 311 311 311 311 312 312 311 310 311 309 310 308 307 307 307 306 304 304 301 299 298 296 295 296 298 300 300 300
322 322 320 319 316 313 311 311 311 311 311 311 311 311 311 311 311 312 312 312 312 311 311 309 309 306 305 304 303 303 304 303 300 298 296 296 297 297 297 298 299 299 299
321 320 319 318 317 315 312 312 312 312 312 312 312 311 311 312 312 312 312 312 309 308 308 307 307 307 305 303 301 300 300 298 296 295 295 295 296 296 296 296 295 296 298
320 320 318 315 313 312 311 312 312 312 311 311 312 312 312 312 311 310 309 308 308 307 306 306 303 300 299 299 298 295 295 296 295 294 293 294 294 294 293 294 293 293 295
318 317 318 317 315 314 313 312 311 311 311 312 312 312 311 309 309 308 307 306 306 306 303 301 300 298 296 295 296 295 294 293 293 292 292 292 293 293 294 294 295 294 294
318 317 316 315 314 314 314 313 313 313 312 311 310 309 308 306 305 305 306 304 301 301 299 297 295 296 296 295 293 292 293 293 293 293 294 294 295 294 294 293 293 294 294
314 314 314 313 313 312 312 311 311 310 309 308 308 307 306 304 302 301 300 300 299 296 295 295 295 294 293 292 292 293 294 294 294 294 294 294 294 294 294 293 293 293 294
311 311 311 309 307 306 304 303 303 302 303 302 302 302 301 300 300 299 298 296 295 295 294 293 293 293 292 293 294 294 294 294 294 294 293 293 293 293 293 293 292 293 293
304 304 303 302 302 301 300 300 300 299 299 299 299 299 298 298 297 296 296 295 294 293 293 292 292 293 294 294 293 293 293 292 293 292 291 292 291 292 292 292 293 293 293
298 297 296 295 295 294 294 294 294 294 294 293 293 293 293 293 293 293 293 292 292 292 292 293 293 294 293 293 293 293 292 292 292 291 290 290 291 291 291 291 292 291 292
295 294 294 294 294 294 294 294 293 292 292 292 292 292 292 292 291 292 292 292 293 294 293 293 293 293 293 292 292 292 291 291 291 290 290 289 290 289 290 290 291 291 292
294 294 294 294 294 293 292 292 291 292 292 293 292 292 292 291 291 293 294 294 294 293 292 292 292 292 292 292 292 292 291 290 290 289 289 288 289 289 289 290 290 290 289

GFSMA_850_thetae_141.txt.gz
Theta_e
333 333 335 335 333 335 330 328 327 326 326 326 327 325 326 326 326 324 324 323 323 321 319 312 308 307 307 308 308 308 308 307 307 306 306 305 304 304 304 304 307 315 325
320 329 334 334 332 332 329 326 325 325 326 326 324 324 325 325 325 324 322 323 322 322 320 315 311 310 310 310 310 311 311 311 311 311 311 310 310 309 308 306 304 303 304
320 331 332 334 333 330 327 324 323 324 324 324 324 324 324 324 324 324 323 320 319 317 311 309 310 310 310 310 310 311 311 310 310 310 309 309 310 310 310 310 310 309 307
327 331 331 333 329 328 325 322 322 323 323 323 323 323 323 323 323 323 322 322 320 314 309 309 309 309 309 309 309 309 310 310 309 309 308 308 308 308 308 309 309 309 309
332 331 330 332 328 327 324 322 322 323 323 323 323 322 322 321 321 321 322 322 321 321 310 309 308 308 309 309 309 309 309 309 309 309 308 308 308 308 309 309 309 309 309
329 332 330 331 327 325 324 322 321 322 322 322 321 321 321 320 319 319 319 319 321 320 317 314 317 308 308 308 309 309 309 309 309 309 309 308 308 308 308 309 309 308 308
331 332 331 328 324 325 325 324 322 321 321 320 320 320 319 319 318 318 317 318 316 317 317 315 318 317 312 308 307 308 309 309 309 309 309 309 309 309 309 309 309 308 305
333 331 330 328 322 324 324 324 322 321 320 319 319 318 318 317 317 316 316 316 316 315 315 315 316 315 314 313 308 308 308 309 309 309 309 308 308 309 309 308 308 307 303
330 326 329 328 322 322 325 324 322 321 320 319 318 318 317 317 316 316 315 315 314 313 313 313 313 313 314 313 310 309 309 309 309 308 308 308 307 308 308 307 307 307 304
324 325 330 324 321 323 324 323 323 321 320 318 318 318 317 317 317 317 315 315 314 313 312 311 311 312 313 312 312 310 309 309 309 308 308 308 307 307 307 307 307 306 303
325 324 330 323 319 320 323 323 324 323 322 320 319 318 316 315 316 316 316 315 314 314 312 311 311 311 311 311 310 310 310 310 309 308 308 307 307 306 307 306 306 304 301
324 325 327 319 318 322 323 324 324 324 323 322 319 319 316 316 314 314 314 316 314 313 311 311 311 311 310 311 311 311 312 311 309 309 308 307 306 306 306 305 304 302 303
324 327 327 320 319 322 321 322 323 324 324 323 321 319 318 316 315 314 314 314 313 312 311 310 310 310 311 310 310 311 312 311 308 308 307 306 306 305 304 303 301 299 302
327 327 327 320 318 321 320 316 318 322 323 323 322 319 317 316 314 314 314 314 313 312 311 311 311 312 312 311 311 311 310 309 306 306 305 305 305 304 302 300 297 297 301
325 325 325 327 318 319 317 316 314 318 320 321 321 319 316 315 314 313 313 312 312 312 312 312 312 312 311 311 309 310 308 306 305 305 304 303 303 301 297 295 296 298 300
323 324 325 324 323 320 319 319 314 312 315 317 317 316 315 314 312 311 311 311 311 311 312 312 312 311 310 308 308 306 305 304 305 306 303 300 296 295 295 295 294 294 294
324 323 322 322 322 322 323 323 317 313 312 311 312 311 311 311 310 311 311 311 311 312 311 311 310 309 308 305 305 305 306 305 300 299 295 296 295 294 294 294 294 293 294
320 321 322 321 319 322 322 323 320 317 311 311 311 311 311 312 312 311 312 312 311 311 310 309 308 307 305 304 303 302 301 298 295 295 295 294 295 295 295 295 294 295 295
319 319 320 319 317 316 315 315 313 312 311 311 312 312 312 312 312 311 311 310 308 307 307 306 305 303 302 301 300 297 295 295 295 294 296 296 295 295 295 295 295 295 295
317 317 315 315 316 315 314 313 313 313 312 312 312 312 312 311 311 310 308 308 307 306 305 302 301 300 298 296 295 295 295 295 296 297 297 296 296 297 296 296 295 295 295
315 314 315 315 315 314 313 313 312 312 312 312 311 311 310 309 308 306 305 304 304 302 301 299 296 295 295 296 296 295 296 297 297 297 297 296 295 295 295 295 295 295 294
315 315 315 315 314 314 313 312 311 311 310 309 308 307 306 305 305 304 303 301 300 299 296 295 297 296 297 296 297 295 295 297 297 297 296 294 295 295 295 295 294 293 293
312 312 312 312 312 311 308 308 307 307 307 307 306 305 304 302 301 300 299 298 295 294 294 296 296 297 297 296 294 294 295 296 296 295 294 294 294 294 294 293 293 293 292
308 307 306 305 304 303 302 301 301 300 300 300 299 299 299 298 298 298 299 297 296 295 295 295 295 295 294 294 294 293 293 294 294 295 294 294 294 293 293 292 293 293 292
301 300 298 296 295 295 295 294 294 294 294 294 294 294 295 295 294 294 294 295 296 295 295 294 293 293 293 293 292 292 293 293 295 294 294 293 293 292 292 293 293 292 292
297 296 296 297 295 295 294 294 293 293 293 293 292 292 292 292 292 292 293 296 296 295 295 293 293 293 292 292 291 291 292 292 293 293 293 292 292 291 291 292 292 291 291